Flag for Kuwait Weather past 2 weeks in Kuwait City, Kuwait

Now
84 °F

Sunny.


Feels Like: 81 °F
Forecast: 87 / 101 °F
Wind: 5 mph from Northwest

Location: Kuwait International Airport

Current Time: Sep 4, 2015 at 7:27:50 AM

Latest Report: Sep 4, 2015 at 6:00 AM


Visibility: 10 mi

Pressure: 29.62 "Hg

Humidity: 20%

Dew point: 39 °F

Historic Weather in Kuwait City — Graph

°F

Kuwait City temperature yesterday

Maximum temperature yesterday: 111 °F (at 1:00 PM)
Minimum temperature yesterday: 84 °F (at 5:30 AM)
Average temperature yesterday: 99 °F

Past Weeks' High & Low Weather Summary

 TemperatureHumidityPressure
High120 °F (Aug 22, 2:00 PM)71% (Aug 22, 2:30 AM)29.71 "Hg (Aug 22, 2:30 AM)
Low84 °F (Aug 22, 5:30 AM)5% (Aug 22, 2:00 PM)29.47 "Hg (Aug 22, 3:00 PM)
Average103 °F20%29.58 "Hg
* Reported Aug 20 6:00 AM — Sep 4 6:00 AM, Kuwait City, Weather by CustomWeather, © 2015

Note: Actual official high and low records may vary slightly from our data, if they occured in-between our weather recording intervals... More about our weather records

Advertising

Kuwait City weather history for previous 24 hours

 ConditionsComfort  
Time TempWeatherWind HumidityBarometerVisibility
6:00 AM
Fri, Sep 4
84 °FSunny.5 mph20%29.62 "Hg10 mi
5:30 AM90 °FSunny.7 mph20%29.62 "Hg10 mi
5:00 AM90 °FClear.6 mph20%29.59 "Hg10 mi
4:30 AM91 °FClear.7 mph20%29.59 "Hg10 mi
4:00 AM93 °FClear.9 mph20%29.59 "Hg10 mi
3:30 AM93 °FClear.7 mph21%29.59 "Hg10 mi
3:00 AM93 °FClear.7 mph23%29.59 "Hg10 mi
2:30 AM93 °FClear.9 mph21%29.59 "Hg10 mi
2:00 AM95 °FClear.13 mph19%29.59 "Hg10 mi
1:00 AM97 °FClear.8 mph16%29.56 "Hg5 mi
12:00 AM88 °FClear.No wind33%29.56 "Hg10 mi
11:30 PM
Thu, Sep 3
90 °FClear.No wind31%29.56 "Hg10 mi
11:00 PM91 °FClear.No wind32%29.56 "Hg10 mi
10:30 PM91 °FClear.3 mph32%29.56 "Hg10 mi
10:00 PM90 °FClear.3 mph33%29.56 "Hg10 mi
9:30 PM91 °FClear.6 mph32%29.56 "Hg10 mi
9:00 PM93 °FClear.3 mph30%29.56 "Hg10 mi
8:30 PM95 °FClear.3 mph28%29.56 "Hg10 mi
8:00 PM99 °FClear.3 mph33%29.53 "Hg10 mi
7:30 PM100 °FClear.7 mph31%29.53 "Hg10 mi
7:00 PM102 °FClear.6 mph11%29.53 "Hg10 mi
6:30 PM106 °FClear.7 mph11%29.53 "Hg10 mi
6:00 PM108 °FSunny.8 mph10%29.53 "Hg10 mi
5:30 PM109 °FSunny.9 mph10%29.53 "Hg10 mi
5:00 PM111 °FSunny.9 mph9%29.53 "Hg10 mi
4:30 PM111 °FSunny.13 mph9%29.53 "Hg10 mi
4:00 PM111 °FSunny.15 mph9%29.53 "Hg10 mi
3:30 PM111 °FSunny.15 mph9%29.53 "Hg10 mi
3:00 PM111 °FSunny.16 mph9%29.53 "Hg10 mi
2:30 PM111 °FSunny.17 mph9%29.53 "Hg10 mi
2:00 PM111 °FSunny.18 mph9%29.56 "Hg10 mi
1:00 PM111 °FSunny.18 mph9%29.56 "Hg10 mi
12:00 PM109 °FSunny.18 mph10%29.59 "Hg10 mi
11:00 AM109 °FSunny.18 mph10%29.59 "Hg10 mi
10:00 AM108 °FSunny.16 mph11%29.62 "Hg10 mi
9:30 AM106 °FSunny.14 mph12%29.62 "Hg10 mi
9:00 AM102 °FSunny.13 mph13%29.62 "Hg10 mi
8:30 AM100 °FSunny.12 mph15%29.62 "Hg10 mi
8:00 AM99 °FSunny.12 mph15%29.62 "Hg10 mi
7:30 AM97 °FSunny.8 mph16%29.62 "Hg4 mi
7:00 AM90 °FSunny.6 mph21%29.62 "Hg4 mi
Weather by CustomWeather, © 2015

See weather overviewHow to use our weather pages